This is the latest recevied weather packets stored in our database for station/object GW7110. If no packets are shown the sender has not sent any weather packets the latest 1 day(s).
| Time | Temp. | Humidity | Pressure | Rain* | Wind** | Luminosity | Snow |
|---|---|---|---|---|---|---|---|
| 1778017801 | 23.89° C | 47% | 29.9 hPa | 0 mm | 0.45 m/s, 256° | 194 W/m² | - |
| 1778017501 | 23.89° C | 48% | 29.9 hPa | 0 mm | 0.45 m/s, 347° | 249 W/m² | - |
| 1778017202 | 23.89° C | 49% | 29.9 hPa | 0 mm | 0.45 m/s, 250° | 162 W/m² | - |
| 1778016901 | 23.89° C | 49% | 29.9 hPa | 0 mm | 0 m/s | 130 W/m² | - |
| 1778016602 | 23.89° C | 48% | 29.9 hPa | 0 mm | 1.34 m/s, 199° | 276 W/m² | - |
| 1778016301 | 23.89° C | 49% | 29.9 hPa | 0 mm | 0 m/s | 263 W/m² | - |
| 1778016002 | 23.89° C | 48% | 29.9 hPa | 0 mm | 0.45 m/s, 185° | 191 W/m² | - |
| 1778015702 | 23.89° C | 48% | 29.9 hPa | 0 mm | 0.89 m/s, 214° | 147 W/m² | - |
| 1778015403 | 23.89° C | 48% | 29.9 hPa | 0 mm | 0.45 m/s, 161° | 155 W/m² | - |
| 1778015102 | 23.89° C | 47% | 29.9 hPa | 0 mm | 0 m/s | 193 W/m² | - |
| 1778014802 | 23.89° C | 46% | 29.9 hPa | 0 mm | 0.45 m/s, 226° | 363 W/m² | - |
| 1778014503 | 23.89° C | 48% | 29.9 hPa | 0 mm | 0 m/s | 235 W/m² | - |
| 1778014202 | 23.89° C | 48% | 29.9 hPa | 0 mm | 0 m/s | 136 W/m² | - |
| 1778013904 | 23.89° C | 49% | 29.9 hPa | 0 mm | 0 m/s | 144 W/m² | - |
| 1778013605 | 23.33° C | 47% | 29.9 hPa | 0 mm | 0 m/s | 199 W/m² | - |
| 1778013303 | 23.33° C | 48% | 29.9 hPa | 0 mm | 0 m/s | 88 W/m² | - |
| 1778013004 | 23.33° C | 47% | 29.9 hPa | 0 mm | 0 m/s | 92 W/m² | - |
| 1778012703 | 23.33° C | 45% | 29.9 hPa | 0 mm | 0.45 m/s, 241° | 105 W/m² | - |
| 1778012401 | 23.33° C | 48% | 29.9 hPa | 0 mm | 0.45 m/s, 205° | 117 W/m² | - |
| 1778012103 | 23.89° C | 46% | 29.9 hPa | 0 mm | 0 m/s | 103 W/m² | - |
| 1778011803 | 23.89° C | 46% | 29.9 hPa | 0 mm | 0 m/s | 129 W/m² | - |
| 1778011502 | 23.89° C | 45% | 29.9 hPa | 0 mm | 0.45 m/s, 154° | 150 W/m² | - |
| 1778011202 | 24.44° C | 44% | 29.9 hPa | 0 mm | 0.45 m/s, 210° | 104 W/m² | - |
| 1778010902 | 24.44° C | 43% | 29.9 hPa | 0 mm | 0.45 m/s, 202° | 155 W/m² | - |
| 1778010602 | 25° C | 44% | 29.9 hPa | 0 mm | 0.45 m/s, 198° | 196 W/m² | - |
* Rain latest hour (hover to see other rain measurements)
** Current wind speed in m/s (hover to see current wind gust speed)